Content
SEND FEEDBACK

Daily
Averages
Monthly
Summary
Italy

BARI, ITALY


Home > Europe > Italy
Elevation: 144 feet     Latitude: 41 08N     Longitude: 016 47E

WEATHER
 
SELECT A DAY
Number of Records: 303,718;   Date Range: 7/1/96 - 12/19/14
 
SHARE

PRINT THIS DATA

[ ← Previous Day ]
WEATHER ALMANAC - MARCH 28, 2013
[ Next Day → ]
[ °C ]   °F
Weather ElementAverageHighLow
Temperature55.9 °F60.8 °F (1:20 pm)51.8 °F (1:20 am)
Dewpoint51.3 °F55.4 °F (6:20 pm)48.2 °F (1:20 am)
Humidity84.8 %100 % (7:20 am)72 % (11:20 am)
Barometer29.89 in29.92 in (9:50 am)29.86 in (1:20 am)
Wind Speed6.2 mph12.7 mph (10:20 pm)
Weather ElementAverage
Visibility5.8 mi
Wind DirectionESE (96 °)

Weather ElementTotal
Precipitation---
Heating Degree Days8.7 (Base 65)
Growing Degree Days6.3 (Base 50)
Averaged from 45 records on March 28, 2013
WEATHER CONDITIONS BREAKOUT
WIND DIRECTION BREAKOUT
WEATHER BY HOUR - MARCH 28, 2013
[ °C ]   °F
Local TimeTemperatureDewpointHumidityBarometerVisibilityWind DirectionWind SpeedGust SpeedPrecipitationEventsConditions
1:20 AM51.8 °F48.2 °F88 %29.86 in6.2 miVariable2.3 mphScattered Clouds
1:50 AM51.8 °F48.2 °F88 %29.86 in6.2 miVariable2.3 mphScattered Clouds
2:20 AM51.8 °F48.2 °F88 %29.86 in6.2 miVariable3.5 mphScattered Clouds
2:50 AM51.8 °F48.2 °F88 %29.86 in6.2 miVariable3.5 mphScattered Clouds
3:50 AM51.8 °F48.2 °F88 %29.86 in6.2 miVariable3.5 mphScattered Clouds
4:20 AM51.8 °F48.2 °F88 %29.86 in6.2 miVariable2.3 mphScattered Clouds
4:50 AM51.8 °F50.0 °F94 %29.86 in6.2 miVariable3.5 mphScattered Clouds
5:20 AM51.8 °F50.0 °F94 %29.86 in6.2 miWest (280°)2.3 mphScattered Clouds
5:50 AM51.8 °F50.0 °F94 %29.86 in4.3 miCalmMostly Cloudy
6:20 AM51.8 °F50.0 °F94 %29.86 in2.5 miCalmScattered Clouds
6:50 AM51.8 °F50.0 °F94 %29.89 in6.2 miVariable2.3 mphScattered Clouds
7:20 AM51.8 °F51.8 °F100 %29.89 in6.2 miVariable2.3 mphScattered Clouds
7:50 AM53.6 °F51.8 °F94 %29.89 in3.1 miVariable1.2 mphScattered Clouds
8:20 AM51.8 °F51.8 °F100 %29.89 in3.7 miVariable1.2 mphScattered Clouds
8:50 AM55.4 °F50.0 °F82 %29.89 in3.7 miSSE (160°)4.6 mphScattered Clouds
9:20 AM57.2 °F51.8 °F82 %29.89 in4.3 miSE (130°)5.8 mphScattered Clouds
9:50 AM57.2 °F50.0 °F77 %29.92 in5.0 miSSE (150°)5.8 mphScattered Clouds
10:20 AM57.2 °F50.0 °F77 %29.92 in6.2 miSE (140°)5.8 mphScattered Clouds
10:50 AM59.0 °F51.8 °F77 %29.92 in6.2 miESE (110°)6.9 mphScattered Clouds
11:20 AM59.0 °F50.0 °F72 %29.92 in6.2 miEast (90°)11.5 mphScattered Clouds
11:50 AM59.0 °F50.0 °F72 %29.92 in6.2 miESE (110°)11.5 mphScattered Clouds
12:20 PM59.0 °F51.8 °F77 %29.92 in6.2 miESE (110°)10.4 mphScattered Clouds
12:50 PM59.0 °F50.0 °F72 %29.92 in6.2 miESE (111°)11.5 mphScattered Clouds
1:20 PM60.8 °F51.8 °F72 %29.92 in6.2 miEast (100°)10.4 mphScattered Clouds
1:50 PM59.0 °F51.8 °F77 %29.89 in6.2 miEast (100°)10.4 mphScattered Clouds
2:20 PM59.0 °F53.6 °F82 %29.89 in6.2 miESE (110°)10.4 mphScattered Clouds
2:50 PM59.0 °F53.6 °F82 %29.89 in6.2 miEast (100°)10.4 mphScattered Clouds
3:20 PM59.0 °F53.6 °F82 %29.89 in6.2 miEast (100°)11.5 mphScattered Clouds
3:50 PM59.0 °F53.6 °F82 %29.89 in6.2 miESE (110°)9.2 mphScattered Clouds
4:20 PM59.0 °F53.6 °F82 %29.89 in6.2 miESE (110°)8.1 mphScattered Clouds
4:50 PM57.2 °F53.6 °F88 %29.89 in6.2 miESE (110°)6.9 mphPartly Cloudy
5:20 PM57.2 °F53.6 °F88 %29.89 in6.2 miEast (100°)5.8 mphPartly Cloudy
5:50 PM57.2 °F53.6 °F88 %29.89 in6.2 miESE (110°)5.8 mphPartly Cloudy
6:20 PM57.2 °F55.4 °F94 %29.89 in6.2 miVariable2.3 mphPartly Cloudy
6:50 PM57.2 °F53.6 °F88 %29.89 in6.2 miESE (110°)5.8 mphPartly Cloudy
7:20 PM57.2 °F51.8 °F82 %29.89 in6.2 miVariable2.3 mphPartly Cloudy
7:50 PM55.4 °F51.8 °F88 %29.92 in6.2 miSouth (170°)3.5 mphPartly Cloudy
8:20 PM55.4 °F51.8 °F88 %29.89 in6.2 miSSE (160°)4.6 mphPartly Cloudy
8:50 PM55.4 °F51.8 °F88 %29.89 in6.2 miSouth (190°)5.8 mphPartly Cloudy
9:20 PM57.2 °F51.8 °F82 %29.89 in6.2 miSSW (210°)8.1 mphPartly Cloudy
9:50 PM57.2 °F51.8 °F82 %29.89 in6.2 miSSW (210°)10.4 mphPartly Cloudy
10:20 PM57.2 °F51.8 °F82 %29.89 in6.2 miSSW (210°)12.7 mphPartly Cloudy
10:50 PM57.2 °F51.8 °F82 %29.89 in6.2 miSSW (210°)10.4 mphPartly Cloudy
11:20 PM57.2 °F50.0 °F77 %29.89 in6.2 miSouth (190°)10.4 mphPartly Cloudy
11:50 PM57.2 °F51.8 °F82 %29.86 in6.2 miSW (220°)9.2 mphScattered Clouds
Hourly data recorded from LIBD, located miles away from Bari, Italy







STORIES FROM OUR PARTNERS